Weather History for Findlay, OH

Change the Weather History Date:

Tuesday, April 2, 2013

  Actual Average Record
Temperature  
Mean Temperature 32 °F -  
Max Temperature 43 °F 52 °F 80 °F (1963)
Min Temperature 21 °F 35 °F 21 °F (2013)
Degree Days  
Heating Degree Days 33    
Moisture  
Dew Point 13 °F    
Average Humidity 49    
Maximum Humidity 75    
Minimum Humidity 29    
Precipitation  
Precipitation 0.00 in - - ()
Sea Level Pressure  
Sea Level Pressure 30.19 in    
Wind  
Wind Speed 8 mph (WNW)    
Max Wind Speed 17 mph    
Max Gust Speed 26 mph    
Visibility 10 miles    
Events      
Averages and records for this station are not official NWS values.
T = Trace of Precipitation, MM = Missing Value Source: NWS Daily Summary

Daily Weather History Graph

Daily Weather History Graph

Search for Another Location

Airport:

Trip Planner

Search our weather history database for the weather conditions in past years. The results will help you decide how hot, cold, wet, or windy it might be!

Date:

Astronomy

Apr. 02, 2013 Rise Set
Actual Time 7:15 AM EDT 8:00 PM EDT
Civil Twilight 6:48 AM EDT 8:28 PM EDT
Nautical Twilight 6:15 AM EDT 9:01 PM EDT
Astronomical Twilight 5:41 AM EDT 9:35 PM EDT
Moon 2:06 AM EDT (4/2) 12:03 PM EDT (4/2)
Length of Visible Light 13h 40m
Length of Day
12h 44m
Waning Gibbous, 56% of the Moon is Illuminated
Apr 2
Waning Gibbous
Apr 3
Last Quarter
Apr 10
New
Apr 18
First Quarter
Apr 25
Full

Hourly Weather History & Observations

Time (EDT) Temp. Windchill Dew Point Humidity Pressure Visibility Wind Dir Wind Speed Gust Speed Precip Events Conditions
12:53 AM 24.1 °F 18.2 °F 12.9 °F 62% 30.13 in 10.0 mi West 4.6 mph - N/A   Clear
1:53 AM 24.1 °F 18.2 °F 12.9 °F 62% 30.14 in 10.0 mi West 4.6 mph - N/A   Clear
2:53 AM 24.1 °F 19.7 °F 12.9 °F 62% 30.13 in 10.0 mi NW 3.5 mph - N/A   Clear
3:53 AM 21.9 °F 17.2 °F 14.0 °F 72% 30.13 in 10.0 mi WSW 3.5 mph - N/A   Clear
4:53 AM 21.9 °F 14.5 °F 14.0 °F 72% 30.13 in 10.0 mi West 5.8 mph - N/A   Clear
5:53 AM 21.9 °F 13.4 °F 14.0 °F 72% 30.14 in 10.0 mi West 6.9 mph - N/A   Clear
6:53 AM 21.9 °F 12.5 °F 15.1 °F 75% 30.17 in 10.0 mi West 8.1 mph - N/A   Scattered Clouds
7:53 AM 23.0 °F 13.9 °F 16.0 °F 74% 30.19 in 10.0 mi WSW 8.1 mph - N/A   Clear
8:53 AM 28.9 °F 20.4 °F 18.0 °F 64% 30.21 in 10.0 mi West 9.2 mph - N/A   Clear
9:53 AM 32.0 °F 23.6 °F 19.9 °F 61% 30.22 in 10.0 mi NW 10.4 mph - N/A   Clear
10:53 AM 34.0 °F 25.5 °F 12.0 °F 40% 30.23 in 10.0 mi NNW 11.5 mph - N/A   Clear
11:53 AM 37.0 °F 27.4 °F 10.9 °F 34% 30.23 in 10.0 mi NW 17.3 mph 24.2 mph N/A   Partly Cloudy
12:53 PM 37.9 °F 29.6 °F 12.0 °F 35% 30.22 in 10.0 mi West 13.8 mph 24.2 mph N/A   Partly Cloudy
1:53 PM 39.9 °F 32.5 °F 14.0 °F 35% 30.21 in 10.0 mi West 12.7 mph 20.7 mph N/A   Scattered Clouds
2:53 PM 37.9 °F 31.5 °F 14.0 °F 38% 30.19 in 10.0 mi West 9.2 mph 20.7 mph N/A   Overcast
3:53 PM 39.9 °F 31.4 °F 15.1 °F 36% 30.17 in 10.0 mi West 16.1 mph 25.3 mph N/A   Overcast
4:53 PM 39.9 °F 32.5 °F 14.0 °F 35% 30.16 in 10.0 mi West 12.7 mph - N/A   Mostly Cloudy
5:53 PM 43.0 °F 35.1 °F 12.9 °F 30% 30.16 in 10.0 mi West 17.3 mph 26.5 mph N/A   Mostly Cloudy
6:53 PM 41.0 °F 33.9 °F 10.9 °F 29% 30.17 in 10.0 mi West 12.7 mph 21.9 mph N/A   Mostly Cloudy
7:53 PM 37.9 °F 30.0 °F 10.0 °F 32% 30.19 in 10.0 mi WNW 12.7 mph - N/A   Clear
8:53 PM 36.0 °F 28.0 °F 10.0 °F 34% 30.21 in 10.0 mi NW 11.5 mph - N/A   Clear
9:53 PM 33.1 °F 24.9 °F 10.9 °F 40% 30.24 in 10.0 mi NW 10.4 mph - N/A   Clear
10:53 PM 32.0 °F 24.2 °F 10.0 °F 40% 30.25 in 10.0 mi NNW 9.2 mph - N/A   Clear
11:53 PM 28.9 °F 22.8 °F 10.0 °F 45% 30.26 in 10.0 mi NW 5.8 mph - N/A   Clear